星链-31276 (STARLINK-31276 )

导读

STARLINK-31276是美国太空探索技术公司SpaceX于2024年2月29日发射的星链卫星,星链项目旨在构建全球卫星互联网星座,为全球缺乏传统网络基础设施的偏远地区提供高速低延迟宽带服务。该卫星被部署到近地轨道,是星链扩张全球网络覆盖的一环,助力实现全球无处不在的高速互联。

Basic Information
目录编号:
59075
目录名称:
STARLINK-31276
国际标识:
2024-041B
轨道中心:
EARTH
卫星名称:
星链-31276
卫星全名:
星链-31276 (STARLINK-31276 )
卫星状态:
在轨 (已飞行840 天)
发射日期:
2024-02-29 UTC
国别 :
美国 (US)
星等 :
--
Orbit Information
数据来源 国际轨道数据 AOE轨道数据
星历时间 2026-06-16T20:52:23+0800
1天前
查看轨道信息
2026-06-15T23:00:00+0800
2天前
查看轨道信息
半长轴 6861.158km 6861.108km
偏心率 0.0001522 0.000267
轨道倾角 43.000° 42.998°
近地点辐角 273.413° 194.296°
升交点赤经 112.060° 117.212°
平近点角 86.655° 188.033°
近地点 481.976km 481.139km
远地点 484.066km 484.803km
周期 94.266分钟 94.265分钟
每日圈数 15.275896 15.276064
Detailed Information
固有亮度:
5
最大亮度:
0.3
卫星平台:
Starlink v2.0 mini
覆盖范围:
全球
运营商:
太空探索技术公司
运营商所在国:
美国
制造商(研发单位):
太空探索技术公司
制造商所在国:
美国
使用方式:
暂无
Satellite Introduction
星链(Starlink)计划是由太空探索技术公司(SpaceX)提出的一个巨型低轨卫星互联网星座项目,计划在2019年至2024年间在太空搭建由约1.2万颗卫星组成的“星链”网络,其中1584颗将部署在地球上空550千米处的近地轨道,并从2020年开始工作。该卫星仍在工作。
2D Orbit Map
3D Orbit Map
Orbit Altitude Analysis Chart
Orbit Inclination Analysis Chart
Orbit Comprehensive Analysis Chart
View Comprehensive Chart